Location: Isles
(48.9125°N, 2.8272°E)
Time: 11:25:07
(UTC+00:00)

Lacrosse 5 - Pass Details

Date: 03 February 2023
Orbit: 714 x 724 km, 57.0° (Epoch: 09 March)

Event Time Altitude Azimuth Distance (km) Brightness Sun altitude
Rises 18:25:41 0° 230° (SW) 3,126 6.2 -16.1°
Reaches altitude 10° 18:28:03 10° 229° (SW) 2,209 5.2 -16.5°
Maximum altitude 18:33:09 83° 142° (SE) 735 1.8 -17.3°
Enters shadow 18:35:50 29° 58° (ENE) 1,322 2.7 -17.7°
